Wilmington, NC

9:11 PM EST on February 06, 2016 (GMT -0500)
Wilmington International

Weather History for KILM - March, 2015

Change the Weather History Date:

Monday, March 30, 2015

  Actual Average Record
Temperature  
Mean Temperature 50 °F 59 °F  
Max Temperature 68 °F 70 °F 88 °F (1985)
Min Temperature 32 °F 47 °F 28 °F (1887)
Degree Days  
Heating Degree Days 15 7  
Month to date heating degree days 306 315  
Since 1 July heating degree days 2489 2244  
Cooling Degree Days 0 1  
Month to date cooling degree days 20 15  
Year to date cooling degree days 26 20  
Moisture  
Dew Point 39 °F    
Average Humidity 67    
Maximum Humidity 89    
Minimum Humidity 45    
Precipitation  
Precipitation T in 0.12 in 3.31 in (1960)
Month to date precipitation 3.43 4.08  
Year to date precipitation 12.75 11.46  
Snow  
Snow 0.00 in 0.00 in T in (1915)
Month to date snowfall 0.0 0.2  
Since 1 July snowfall 0.3 1.7  
Snow Depth 0.00 in    
Sea Level Pressure  
Sea Level Pressure 30.11 in    
Wind  
Wind Speed 8 mph (SW)    
Max Wind Speed 24 mph    
Max Gust Speed 29 mph    
Visibility 10 miles    
Events Rain    
T = Trace of Precipitation, MM = Missing Value Source: NWS Daily Summary

Daily Weather History Graph

Daily Weather History Graph

Search for Another Location

Airport or City:

Trip Planner

Search our weather history database for the weather conditions in past years. The results will help you decide how hot, cold, wet, or windy it might be!

Date:

Astronomy

Mar. 30, 2015 Rise Set
Actual Time 7:01 AM EDT 7:30 PM EDT
Civil Twilight 6:36 AM EDT 7:56 PM EDT
Nautical Twilight 6:07 AM EDT 8:25 PM EDT
Astronomical Twilight 5:37 AM EDT 8:55 PM EDT
Moon 3:29 PM EDT (3/30) 4:13 AM EDT (3/30)
Length of Visible Light 13h 19m
Length of Day
12h 28m
Waxing Gibbous, 80% of the Moon is Illuminated
Mar 30
Waxing Gibbous
Apr 4
Full
Apr 11
Last Quarter
Apr 18
New
Apr 25
First Quarter

Hourly Weather History & Observations

Time (EDT) Temp. Windchill Dew Point Humidity Pressure Visibility Wind Dir Wind Speed Gust Speed Precip Events Conditions
12:53 AM 35.1 °F 31.0 °F 30.9 °F 85% 30.30 in 10.0 mi South 4.6 mph - N/A   Clear
1:53 AM 33.1 °F - 30.9 °F 92% 30.27 in 10.0 mi Calm Calm - N/A   Clear
2:53 AM 35.1 °F - 30.9 °F 85% 30.25 in 10.0 mi Calm Calm - N/A   Clear
3:53 AM 34.0 °F - 30.9 °F 89% 30.22 in 10.0 mi Calm Calm - N/A   Clear
4:53 AM 33.1 °F 30.0 °F 30.0 °F 89% 30.20 in 10.0 mi South 3.5 mph - N/A   Clear
5:53 AM 35.1 °F - 30.9 °F 85% 30.19 in 10.0 mi Calm Calm - N/A   Clear
6:53 AM 35.1 °F - 30.9 °F 85% 30.19 in 10.0 mi Calm Calm - N/A   Clear
7:53 AM 41.0 °F 38.0 °F 35.1 °F 79% 30.17 in 10.0 mi SSW 4.6 mph - N/A   Clear
8:53 AM 52.0 °F - 39.9 °F 63% 30.17 in 10.0 mi SW 12.7 mph - N/A   Mostly Cloudy
9:53 AM 57.0 °F - 42.1 °F 57% 30.16 in 10.0 mi SW 10.4 mph - N/A   Partly Cloudy
10:53 AM 57.0 °F - 37.9 °F 49% 30.14 in 10.0 mi SW 16.1 mph - N/A   Overcast
11:53 AM 57.0 °F - 39.9 °F 53% 30.11 in 9.0 mi SW 18.4 mph 21.9 mph 0.00 in Rain Light Rain
12:53 PM 59.0 °F - 42.1 °F 53% 30.08 in 10.0 mi SW 17.3 mph 24.2 mph 0.00 in   Overcast
1:53 PM 60.1 °F - 42.1 °F 51% 30.05 in 10.0 mi WSW 19.6 mph 25.3 mph N/A   Overcast
2:53 PM 64.0 °F - 44.1 °F 48% 30.02 in 10.0 mi WSW 19.6 mph 24.2 mph N/A   Clear
3:53 PM 66.0 °F - 45.0 °F 47% 29.99 in 10.0 mi West 21.9 mph 25.3 mph N/A   Mostly Cloudy
4:53 PM 66.9 °F - 46.0 °F 47% 29.97 in 10.0 mi West 13.8 mph - N/A   Clear
5:53 PM 66.0 °F - 45.0 °F 47% 29.97 in 10.0 mi WNW 12.7 mph - N/A   Clear
6:53 PM 64.0 °F - 45.0 °F 50% 29.98 in 10.0 mi WNW 11.5 mph - N/A   Mostly Cloudy
7:53 PM 60.1 °F - 46.0 °F 60% 30.00 in 10.0 mi West 5.8 mph - N/A   Clear
8:53 PM 55.0 °F - 46.0 °F 72% 30.02 in 10.0 mi SSW 4.6 mph - N/A   Clear
9:53 PM 51.1 °F - 45.0 °F 80% 30.03 in 10.0 mi SSW 5.8 mph - N/A   Clear
10:53 PM 52.0 °F - 46.0 °F 80% 30.04 in 10.0 mi SSW 3.5 mph - N/A   Clear
11:53 PM 48.9 °F - 45.0 °F 86% 30.05 in 10.0 mi Calm Calm - N/A   Clear